map of AUY home
Great Circle Mapper logo
AUY - Facility
Location
City:  Anelghowhat, Anatom (Aneityum, Kéamu) Island, Taféa, Vanuatu
Near (Alt.):Inyeug Island
ICAO:NVVA
IATA:AUY

Details
Type:Facility
Latitude:20°14'57"S (-20.249166)
Longitude:169°46'17"E (169.771389)
Elevation:7 ft (2 m)
Variation:12.31°E (WMM2015 magnetic declination)
0.03° annual change
Runways:unknown number
Longest:2000 ft (610 m)

Time
Time Zone:UTC+11
Local Time:

Weather
TAF:NVVA 301000Z 3012/3112 12005KT 9999 SCT022

Related Locations
Nearby:
Farthest:CGT: 12307 mi / 19806 km
Chinguetti [Chinguetti Airport], MR

Find:

   beyond  
but within

Other Information
Maps:
NOTAMs:
Links:
Sources:

  
flag of Vanuatu   

Sectional Chart

Flight Planning
at skyvector.com

Satellite Image

Google Maps Satellite view

 

Copyright © 2004-2016 Karl L. Swartz. All rights reserved.
The Great Circle Mapper name and logo are trademarks of the Great Circle Mapper.
All other trademarks mentioned herein belong to their respective owners.
Please see credits for attibutions and further copyright information.

  Follow gcmap on Facebook Follow gcmap on Twitter Follow gcmap on Google+ GCmap on LinkedIn

hCard Microformat

Geo Microformat